User: anonymous   Login
Location: Unspecified
(0.0000°N, 0.0000°E)
Time: 23:01:46
(UTC+02:00)
Language:

Cosmos 1092 Rocket - Orbit

View from above orbital plane
View from above orbital plane
View from above satellite
View from above satellite

Ground track
Ground track

The orbit data is extracted from the following two-line orbital elements,

1 11327U 79030B   15186.39761418  .00000077  00000-0  62571-4 0  9992
2 11327 082.9509 105.1237 0028257 017.8889 120.3833 13.76957466821042
Epoch (UTC): 05 July 2015 09:32:33
Eccentricity: 0.0028257
inclination: 82.9509°
perigee height: 954 km
apogee height: 995 km
right ascension of ascending node: 105.1237°
argument of perigee: 17.8889°
revolutions per day: 13.76957466
mean anomaly at epoch: 120.3833°
orbit number at epoch: 82104

The dashed part of the orbit path shows where the satellite is in the earth's shadow,  

DLR